sat.trackr.live / text

‹ back to catalog

STARLINK-34452

NORAD 64425 · 2025-129P

PAYLOAD ACTIVE UNKNOWN

§ Identity

Operator
Country
US
Launch date
2025-06-17
Launch site
AFWTR
Launch vehicle
Mass (kg)
RCS (m²)

Purposes: comms

External: N2YO · Heavens-Above · Gunter

§ Orbital elements

Epoch: 2026-09-20T11:49:19.014816Z

Period
94.14 min
Inclination
70.0014°
Eccentricity
0.0003332
Mean motion
15.29586454 rev/d
Perigee alt
474.8 km
Apogee alt
479.3 km
Semi-major
6,855.2 km
B*
2.3328e-4
RAAN
301.0223°
Arg perigee
264.3608°
Mean anomaly
95.7188°
Rev number
7,052

§ Raw data

STARLINK-344521 64425U 25129P   26263.49258119  .00006585  00000+0  23328-3 0  99922 64425  70.0014 301.0223 0003332 264.3608  95.7188 15.29586454 70527

JSON: /api/v1/satellites/64425 · /tle

For live sub-satellite position, see the globe view (requires WebGL).

§ Visibility from observer

Set your observer location to see the next 7 days of passes ≥ 10°. The values pass through the URL so the page stays shareable.

No JS? Fill the form by hand. The geolocation button needs JavaScript.